Weather in Sunzha

Russia / Republic of Ingushetia     43°19′13″N   45°02′51″E
temp.,
°C
wind,
m/s
gust,
m/s
humid.,
%
clouds,
%
prec.,
mm/h
press.,
hPa
HPBL,
m
12 august, fri
fri1200:00+21ssw22680 0.1 101017
03:00+20ssw21650 0.1 101014
06:00+21sw11660 0.0 101115
09:00+28n11474 0.0 1011661
12:00+32ne32372 0.0 10101970
15:00+31ene334099 0.1 10091359
18:00+27ne135179 0.3 100945
21:00+19wsw34866 3.8 101358
13 august, sat
sat1300:00+19wsw23930 0.7 101256
03:00+18sw22880 0.7 101221
06:00+18sw22840 0.0 101243
09:00+26nne11560 0.0 1011615
12:00+30ene33413 0.0 10091398
15:00+33e22310 0.0 10061924
18:00+30ene57340 0.0 1006395
21:00+22se01480 0.0 100812
14 august, sun
sun1400:00+20wsw22500 0.0 100720
03:00+19sw22460 0.0 100729
06:00+19sw22470 0.0 100725
09:00+28ne11324 0.0 1006588
12:00+33e33250 0.0 10041220
15:00+36e22230 0.0 10031824
18:00+32w36350 0.0 1004187
21:00+24sw22510 0.0 100620
15 august, mon
mon1500:00+23sw23450 0.0 100633
03:00+21sw32400 0.0 100629
06:00+21sw22430 0.0 100723
09:00+30ne12290 0.0 1006598
12:00+34ene33250 0.0 10041446
15:00+37ene22230 0.0 10031738
18:00+33ssw11330 0.0 100318
21:00+25sw34510 0.0 100548
16 august, tue
tue1600:00+24sw33370 0.0 100640
03:00+23sw33350 0.0 100634
06:00+23sw32400 0.0 100841
09:00+31wsw45310 0.0 1008668
12:00+35w32260 0.0 10081538
15:00+37wsw22230 0.0 10072146
18:00+33sw45330 0.0 1007231
21:00+26sw33480 0.0 100937